,,Stat5,,Stat1,,Stat2,,Stat3,,Stat4,,Wind1,,Wind1,
time,status,PA1M_AVG,status,PR1M_SUM,status,RH1M_AVG,status,SR1M_AVG,status,TA1M_AVG,status,W1dAve1m,status,W1sAve1m,
2000-08-14, 00:00:01,VALID,919.491,VALID,0,VALID,99.2169,VALID,-0.118866,VALID,19.1204,VALID,197,VALID,0,
2000-08-14, 00:01:00,VALID,919.476,VALID,0,VALID,99.2157,VALID,-0.0679233,VALID,19.1042,VALID,197,VALID,0,
2000-08-14, 00:02:00,VALID,919.475,VALID,0,VALID,99.2208,VALID,-0.0849042,VALID,19.0911,VALID,182,VALID,0,
2000-08-14, 00:03:00,VALID,919.458,VALID,0,VALID,99.1406,VALID,-0.0679233,VALID,19.0366,VALID,170,VALID,0,
2000-08-14, 00:04:00,VALID,919.457,VALID,0,VALID,99.1114,VALID,-0.101885,VALID,18.9623,VALID,142,VALID,0.131785,
2000-08-14, 00:05:00,VALID,919.46,VALID,0,VALID,99.1661,VALID,-0.101885,VALID,18.9559,VALID,125,VALID,0.596227,
2000-08-14, 00:06:00,VALID,919.456,VALID,0,VALID,99.1775,VALID,-0.101885,VALID,18.9367,VALID,128,VALID,0.65918,
2000-08-14, 00:07:00,VALID,919.446,VALID,0,VALID,99.2449,VALID,-0.135847,VALID,18.9529,VALID,137,VALID,0.57492,
2000-08-14, 00:08:00,VALID,919.45,VALID,0,VALID,99.2704,VALID,-0.101885,VALID,18.9561,VALID,145,VALID,0.544408,
2000-08-14, 00:09:00,VALID,919.448,VALID,0,VALID,99.2882,VALID,-0.135847,VALID,18.9501,VALID,145,VALID,0.44455,
2000-08-14, 00:10:00,VALID,919.433,VALID,0,VALID,99.3072,VALID,-0.101885,VALID,18.9499,VALID,149,VALID,0.257196,
2000-08-14, 00:11:00,VALID,919.424,VALID,0,VALID,99.3301,VALID,-0.101885,VALID,18.9598,VALID,173,VALID,0,
2000-08-14, 00:12:00,VALID,919.425,VALID,0,VALID,99.3238,VALID,-0.101885,VALID,18.9429,VALID,174,VALID,0,
2000-08-14, 00:13:00,VALID,919.404,VALID,0,VALID,99.2958,VALID,-0.0169808,VALID,18.9065,VALID,168,VALID,0.211782,
2000-08-14, 00:14:00,VALID,919.42,VALID,0,VALID,99.2271,VALID,0.0169808,VALID,18.867,VALID,159,VALID,0.643527,
2000-08-14, 00:15:00,VALID,919.432,VALID,0,VALID,99.2754,VALID,0.0169808,VALID,18.864,VALID,158,VALID,0.692845,
2000-08-14, 00:16:00,VALID,919.439,VALID,0,VALID,99.2983,VALID,-0.0169808,VALID,18.8677,VALID,152,VALID,0.705448,
2000-08-14, 00:17:00,VALID,919.427,VALID,0,VALID,99.2704,VALID,0,VALID,18.8317,VALID,144,VALID,0.442229,
2000-08-14, 00:18:00,VALID,919.41,VALID,0,VALID,99.2627,VALID,0,VALID,18.819,VALID,142,VALID,0.361909,
2000-08-14, 00:19:00,VALID,919.395,VALID,0,VALID,99.2945,VALID,0,VALID,18.8257,VALID,140,VALID,0.349414,
2000-08-14, 00:20:00,VALID,919.376,VALID,0,VALID,99.3377,VALID,0,VALID,18.8218,VALID,146,VALID,0.223684,
2000-08-14, 00:21:00,VALID,919.357,VALID,0,VALID,99.3823,VALID,0,VALID,18.8605,VALID,158,VALID,0,
2000-08-14, 00:22:00,VALID,919.349,VALID,0,VALID,99.4446,VALID,0,VALID,18.9062,VALID,170,VALID,0,
2000-08-14, 00:23:00,VALID,919.342,VALID,0,VALID,99.4853,VALID,-0.0169808,VALID,18.9549,VALID,176,VALID,0,
2000-08-14, 00:24:00,VALID,919.324,VALID,0,VALID,99.5234,VALID,0,VALID,18.9964,VALID,199,VALID,0.392188,
2000-08-14, 00:25:00,VALID,919.322,VALID,0,VALID,99.5399,VALID,0,VALID,19.0327,VALID,220,VALID,0.435352,
2000-08-14, 00:26:00,VALID,919.317,VALID,0,VALID,99.5603,VALID,0,VALID,19.062,VALID,219,VALID,0.360176,
2000-08-14, 00:27:00,VALID,919.323,VALID,0,VALID,99.5654,VALID,-0.0169808,VALID,19.0807,VALID,216,VALID,0.734169,
2000-08-14, 00:28:00,VALID,919.319,VALID,0,VALID,99.5628,VALID,-0.0849042,VALID,19.1047,VALID,209,VALID,0.735197,
2000-08-14, 00:29:00,VALID,919.305,VALID,0,VALID,99.5666,VALID,-0.101885,VALID,19.1246,VALID,219,VALID,0.769336,
2000-08-14, 00:30:00,VALID,919.304,VALID,0,VALID,99.5679,VALID,-0.101885,VALID,19.1308,VALID,222,VALID,0.863281,
2000-08-14, 00:31:00,VALID,919.301,VALID,0,VALID,99.5946,VALID,-0.152827,VALID,19.1601,VALID,228,VALID,0.915913,
2000-08-14, 00:32:00,VALID,919.316,VALID,0,VALID,99.5883,VALID,-0.101885,VALID,19.1894,VALID,215,VALID,1.00697,
2000-08-14, 00:33:00,VALID,919.323,VALID,0,VALID,99.5844,VALID,-0.101885,VALID,19.1986,VALID,221,VALID,0.855903,
2000-08-14, 00:34:00,VALID,919.344,VALID,0,VALID,99.5781,VALID,-0.135847,VALID,19.2287,VALID,207,VALID,0.439063,
2000-08-14, 00:35:00,VALID,919.357,VALID,0,VALID,99.5666,VALID,-0.101885,VALID,19.2215,VALID,199,VALID,0.415179,
2000-08-14, 00:36:00,VALID,919.372,VALID,0,VALID,99.5603,VALID,-0.101885,VALID,19.2081,VALID,181,VALID,0.514569,
2000-08-14, 00:37:00,VALID,919.379,VALID,0,VALID,99.531,VALID,-0.101885,VALID,19.1957,VALID,169,VALID,0.460515,
2000-08-14, 00:38:00,VALID,919.395,VALID,0,VALID,99.5476,VALID,-0.118866,VALID,19.1857,VALID,158,VALID,0.556743,
2000-08-14, 00:39:00,VALID,919.399,VALID,0,VALID,99.5501,VALID,-0.118866,VALID,19.1887,VALID,160,VALID,0.53811,
2000-08-14, 00:40:00,VALID,919.408,VALID,0,VALID,99.5616,VALID,-0.101885,VALID,19.2153,VALID,173,VALID,0.428248,
2000-08-14, 00:41:00,VALID,919.395,VALID,0,VALID,99.5577,VALID,-0.101885,VALID,19.2252,VALID,200,VALID,0.520148,
2000-08-14, 00:42:00,VALID,919.39,VALID,0,VALID,99.5565,VALID,-0.152827,VALID,19.2377,VALID,223,VALID,0.519097,
2000-08-14, 00:43:00,VALID,919.377,VALID,0,VALID,99.559,VALID,-0.0339617,VALID,19.2362,VALID,227,VALID,0.432221,
2000-08-14, 00:44:00,VALID,919.365,VALID,0,VALID,99.5755,VALID,0,VALID,19.2558,VALID,203,VALID,0.403372,
2000-08-14, 00:45:00,VALID,919.345,VALID,0,VALID,99.5514,VALID,0,VALID,19.2489,VALID,202,VALID,0.115132,
2000-08-14, 00:46:00,VALID,919.343,VALID,0,VALID,99.5425,VALID,0,VALID,19.2553,VALID,201,VALID,0,
2000-08-14, 00:47:00,VALID,919.333,VALID,0,VALID,99.5234,VALID,-0.0169808,VALID,19.2454,VALID,201,VALID,0,
2000-08-14, 00:48:00,VALID,919.333,VALID,0,VALID,99.4954,VALID,-0.0169808,VALID,19.2422,VALID,194,VALID,0,
2000-08-14, 00:49:00,VALID,919.33,VALID,0,VALID,99.4687,VALID,0,VALID,19.2459,VALID,191,VALID,0,
2000-08-14, 00:50:00,VALID,919.329,VALID,0,VALID,99.4217,VALID,0,VALID,19.2263,VALID,166,VALID,0.200041,
2000-08-14, 00:51:00,VALID,919.316,VALID,0,VALID,99.4064,VALID,0,VALID,19.1999,VALID,139,VALID,1.09701,
2000-08-14, 00:52:00,VALID,919.323,VALID,0,VALID,99.3823,VALID,-0.0339617,VALID,19.1972,VALID,125,VALID,1.10938,
2000-08-14, 00:53:00,VALID,919.326,VALID,0,VALID,99.3454,VALID,0,VALID,19.1746,VALID,110,VALID,0.935033,
2000-08-14, 00:54:00,VALID,919.344,VALID,0,VALID,99.2894,VALID,-0.0169808,VALID,19.1363,VALID,111,VALID,0.886607,
2000-08-14, 00:55:00,VALID,919.34,VALID,0,VALID,99.2347,VALID,0,VALID,19.0874,VALID,113,VALID,0.846289,
2000-08-14, 00:56:00,VALID,919.346,VALID,0,VALID,99.2182,VALID,-0.0169808,VALID,19.0548,VALID,116,VALID,1.1274,
2000-08-14, 00:57:00,VALID,919.332,VALID,0,VALID,99.2131,VALID,0,VALID,19.0488,VALID,106,VALID,0.905428,
2000-08-14, 00:58:00,VALID,919.328,VALID,0,VALID,99.1343,VALID,0,VALID,19.0001,VALID,99,VALID,0.671053,
2000-08-14, 00:59:00,VALID,919.32,VALID,0,VALID,99.1076,VALID,-0.0339617,VALID,18.9877,VALID,81,VALID,0.995117,
2000-08-14, 01:00:00,VALID,919.309,VALID,0,VALID,99.0682,VALID,-0.0509425,VALID,18.9745,VALID,74,VALID,1.05263,
2000-08-14, 01:01:00,VALID,919.318,VALID,0,VALID,99.0542,VALID,0,VALID,18.9614,VALID,70,VALID,0.879317,
2000-08-14, 01:02:00,VALID,919.308,VALID,0,VALID,99.0644,VALID,-0.0169808,VALID,18.9519,VALID,55,VALID,0.708615,
2000-08-14, 01:03:00,VALID,919.311,VALID,0,VALID,99.0771,VALID,-0.0169808,VALID,18.9522,VALID,43,VALID,0.701823,
2000-08-14, 01:04:00,VALID,919.326,VALID,0,VALID,99.0885,VALID,-0.0339617,VALID,18.9323,VALID,78,VALID,0.663393,
2000-08-14, 01:05:00,VALID,919.342,VALID,0,VALID,99.0504,VALID,-0.0169808,VALID,18.897,VALID,84,VALID,0.765997,
2000-08-14, 01:06:00,VALID,919.35,VALID,0,VALID,99.0389,VALID,0,VALID,18.8774,VALID,95,VALID,0.368877,
2000-08-14, 01:07:00,VALID,919.342,VALID,0,VALID,99.0669,VALID,-0.0339617,VALID,18.8779,VALID,95,VALID,0.682221,
2000-08-14, 01:08:00,VALID,919.354,VALID,0,VALID,99.1496,VALID,0,VALID,18.8806,VALID,90,VALID,1.22368,
2000-08-14, 01:09:00,VALID,919.347,VALID,0,VALID,99.2017,VALID,-0.0169808,VALID,18.8801,VALID,77,VALID,1.03087,
2000-08-14, 01:10:00,VALID,919.348,VALID,0,VALID,99.2589,VALID,-0.0509425,VALID,18.8935,VALID,75,VALID,0.859992,
2000-08-14, 01:11:00,VALID,919.353,VALID,0,VALID,99.2996,VALID,-0.0679233,VALID,18.9102,VALID,71,VALID,0.852796,
2000-08-14, 01:12:00,VALID,919.355,VALID,0,VALID,99.3174,VALID,0,VALID,18.9062,VALID,63,VALID,0.720269,
2000-08-14, 01:13:00,VALID,919.356,VALID,0,VALID,99.3492,VALID,-0.0509425,VALID,18.9196,VALID,60,VALID,0.771959,
2000-08-14, 01:14:00,VALID,919.361,VALID,0,VALID,99.3708,VALID,-0.0169808,VALID,18.9069,VALID,88,VALID,0.745759,
2000-08-14, 01:15:00,VALID,919.367,VALID,0,VALID,99.3835,VALID,0,VALID,18.8903,VALID,108,VALID,0.540707,
2000-08-14, 01:16:00,VALID,919.356,VALID,0,VALID,99.4039,VALID,-0.0849042,VALID,18.9072,VALID,125,VALID,0.139358,
2000-08-14, 01:17:00,VALID,919.362,VALID,0,VALID,99.4115,VALID,-0.0339617,VALID,18.8811,VALID,96,VALID,0,
2000-08-14, 01:18:00,VALID,919.355,VALID,0,VALID,99.4331,VALID,-0.0339617,VALID,18.8843,VALID,94,VALID,0,
2000-08-14, 01:19:00,VALID,919.357,VALID,0,VALID,99.4217,VALID,0,VALID,18.8649,VALID,91,VALID,0,
2000-08-14, 01:20:00,VALID,919.361,VALID,0,VALID,99.395,VALID,-0.0339617,VALID,18.8259,VALID,68,VALID,0,
2000-08-14, 01:21:00,VALID,919.357,VALID,0,VALID,99.4026,VALID,-0.0509425,VALID,18.7971,VALID,76,VALID,0,
2000-08-14, 01:22:00,VALID,919.374,VALID,0,VALID,99.4128,VALID,-0.0169808,VALID,18.7904,VALID,46,VALID,0,
2000-08-14, 01:23:00,VALID,919.371,VALID,0,VALID,99.4382,VALID,0,VALID,18.7837,VALID,2,VALID,0,
2000-08-14, 01:24:00,VALID,919.398,VALID,0,VALID,99.4687,VALID,-0.0339617,VALID,18.8073,VALID,2,VALID,0,
2000-08-14, 01:25:00,VALID,919.41,VALID,0,VALID,99.4853,VALID,-0.0339617,VALID,18.8197,VALID,28,VALID,0,
2000-08-14, 01:26:00,VALID,919.429,VALID,0,VALID,99.4942,VALID,0,VALID,18.813,VALID,32,VALID,0,
2000-08-14, 01:27:00,VALID,919.431,VALID,0,VALID,99.5081,VALID,-0.0339617,VALID,18.8292,VALID,32,VALID,0,
2000-08-14, 01:28:00,VALID,919.443,VALID,0,VALID,99.5259,VALID,-0.0339617,VALID,18.8453,VALID,44,VALID,0,
2000-08-14, 01:29:00,VALID,919.468,VALID,0,VALID,99.5412,VALID,-0.0169808,VALID,18.8615,VALID,73,VALID,0,
2000-08-14, 01:30:00,VALID,919.475,VALID,0,VALID,99.5412,VALID,-0.0339617,VALID,18.8647,VALID,73,VALID,0,
2000-08-14, 01:31:00,VALID,919.467,VALID,0,VALID,99.5514,VALID,-0.0169808,VALID,18.8677,VALID,73,VALID,0,
2000-08-14, 01:32:00,VALID,919.467,VALID,0,VALID,99.5552,VALID,0,VALID,18.8776,VALID,76,VALID,0,
2000-08-14, 01:33:00,VALID,919.448,VALID,0,VALID,99.5679,VALID,-0.0169808,VALID,18.8838,VALID,76,VALID,0,
2000-08-14, 01:34:00,VALID,919.439,VALID,0,VALID,99.5755,VALID,-0.0339617,VALID,18.8875,VALID,76,VALID,0,
2000-08-14, 01:35:00,VALID,919.43,VALID,0,VALID,99.5768,VALID,-0.0169808,VALID,18.9005,VALID,76,VALID,0,
2000-08-14, 01:36:00,VALID,919.428,VALID,0,VALID,99.5819,VALID,-0.0169808,VALID,18.9161,VALID,76,VALID,0,
2000-08-14, 01:37:00,VALID,919.433,VALID,0,VALID,99.587,VALID,-0.0509425,VALID,18.9325,VALID,76,VALID,0,
2000-08-14, 01:38:00,VALID,919.46,VALID,0,VALID,99.5844,VALID,-0.0169808,VALID,18.9455,VALID,76,VALID,0,
2000-08-14, 01:39:00,VALID,919.474,VALID,0,VALID,99.5819,VALID,-0.0339617,VALID,18.9392,VALID,331,VALID,0,
2000-08-14, 01:40:00,VALID,919.471,VALID,0,VALID,99.5616,VALID,-0.0339617,VALID,18.9325,VALID,318,VALID,0,
2000-08-14, 01:41:00,VALID,919.507,VALID,0,VALID,99.5641,VALID,0,VALID,18.9358,VALID,318,VALID,0,
2000-08-14, 01:42:00,VALID,919.519,VALID,0,VALID,99.5552,VALID,-0.0169808,VALID,18.945,VALID,317,VALID,0,
2000-08-14, 01:43:00,VALID,919.526,VALID,0,VALID,99.5628,VALID,0,VALID,18.9584,VALID,317,VALID,0,
2000-08-14, 01:44:00,VALID,919.528,VALID,0,VALID,99.5717,VALID,-0.0339617,VALID,18.9614,VALID,317,VALID,0,
2000-08-14, 01:45:00,VALID,919.523,VALID,0,VALID,99.559,VALID,0,VALID,18.9648,VALID,340,VALID,0,
2000-08-14, 01:46:00,VALID,919.512,VALID,0,VALID,99.545,VALID,0,VALID,18.9383,VALID,5,VALID,0,
2000-08-14, 01:47:00,VALID,919.51,VALID,0,VALID,99.5399,VALID,-0.0169808,VALID,18.9355,VALID,354,VALID,0,
2000-08-14, 01:48:00,VALID,919.499,VALID,0,VALID,99.5399,VALID,-0.0169808,VALID,18.9358,VALID,354,VALID,0,
2000-08-14, 01:49:00,VALID,919.484,VALID,0,VALID,99.5272,VALID,-0.0169808,VALID,18.9258,VALID,354,VALID,0,
2000-08-14, 01:50:00,VALID,919.468,VALID,0,VALID,99.5285,VALID,-0.0169808,VALID,18.9323,VALID,354,VALID,0,
2000-08-14, 01:51:00,VALID,919.455,VALID,0,VALID,99.5412,VALID,-0.0169808,VALID,18.9358,VALID,326,VALID,0,
2000-08-14, 01:52:00,VALID,919.435,VALID,0,VALID,99.5221,VALID,0,VALID,18.9358,VALID,246,VALID,0,
2000-08-14, 01:53:00,VALID,919.425,VALID,0,VALID,99.517,VALID,0,VALID,18.9293,VALID,233,VALID,0,
2000-08-14, 01:54:00,VALID,919.41,VALID,0,VALID,99.5196,VALID,-0.0339617,VALID,18.9226,VALID,222,VALID,0,
2000-08-14, 01:55:00,VALID,919.411,VALID,0,VALID,99.5031,VALID,-0.0169808,VALID,18.9127,VALID,216,VALID,0,
2000-08-14, 01:56:00,VALID,919.407,VALID,0,VALID,99.4776,VALID,0,VALID,18.8998,VALID,221,VALID,0,
2000-08-14, 01:57:00,VALID,919.393,VALID,0,VALID,99.4598,VALID,0,VALID,18.8841,VALID,214,VALID,0,
2000-08-14, 01:58:00,VALID,919.394,VALID,0,VALID,99.456,VALID,-0.0339617,VALID,18.8645,VALID,198,VALID,0,
2000-08-14, 01:59:00,VALID,919.371,VALID,0,VALID,99.4496,VALID,0,VALID,18.8418,VALID,202,VALID,0,
2000-08-14, 02:00:00,VALID,919.353,VALID,0,VALID,99.4764,VALID,0,VALID,18.8354,VALID,187,VALID,0,
2000-08-14, 02:01:00,VALID,919.33,VALID,0,VALID,99.4687,VALID,-0.0509425,VALID,18.8162,VALID,194,VALID,0,
2000-08-14, 02:02:00,VALID,919.297,VALID,0,VALID,99.4573,VALID,0,VALID,18.7964,VALID,198,VALID,0,
2000-08-14, 02:03:00,VALID,919.273,VALID,0,VALID,99.4115,VALID,-0.0169808,VALID,18.7641,VALID,191,VALID,0,
2000-08-14, 02:04:00,VALID,919.241,VALID,0,VALID,99.3975,VALID,-0.0169808,VALID,18.7226,VALID,193,VALID,0,
2000-08-14, 02:05:00,VALID,919.208,VALID,0,VALID,99.409,VALID,-0.0169808,VALID,18.7037,VALID,190,VALID,0,
2000-08-14, 02:06:00,VALID,919.171,VALID,0,VALID,99.498,VALID,-0.0339617,VALID,18.7094,VALID,189,VALID,0,
2000-08-14, 02:07:00,VALID,919.147,VALID,0,VALID,99.5463,VALID,-0.0169808,VALID,18.732,VALID,177,VALID,0,
2000-08-14, 02:08:00,VALID,919.134,VALID,0,VALID,99.4992,VALID,0,VALID,18.7126,VALID,168,VALID,0,
2000-08-14, 02:09:00,VALID,919.11,VALID,0,VALID,99.4967,VALID,-0.0169808,VALID,18.7004,VALID,171,VALID,0,
2000-08-14, 02:10:00,VALID,919.099,VALID,0,VALID,99.4814,VALID,-0.0339617,VALID,18.6547,VALID,171,VALID,0,
2000-08-14, 02:11:00,VALID,919.081,VALID,0,VALID,99.498,VALID,-0.0169808,VALID,18.6321,VALID,171,VALID,0,
2000-08-14, 02:12:00,VALID,919.062,VALID,0,VALID,99.4738,VALID,-0.0339617,VALID,18.6063,VALID,172,VALID,0,
2000-08-14, 02:13:00,VALID,919.04,VALID,0,VALID,99.4509,VALID,-0.0169808,VALID,18.5613,VALID,173,VALID,0,
2000-08-14, 02:14:00,VALID,919.009,VALID,0,VALID,99.4611,VALID,0,VALID,18.5421,VALID,184,VALID,0,
2000-08-14, 02:15:00,VALID,918.951,VALID,0,VALID,99.4713,VALID,0.0169808,VALID,18.4965,VALID,198,VALID,0,
2000-08-14, 02:16:00,VALID,918.903,VALID,0,VALID,99.4954,VALID,0.0169808,VALID,18.4773,VALID,213,VALID,0.877534,
2000-08-14, 02:17:00,VALID,918.868,VALID,0,VALID,99.4992,VALID,0,VALID,18.4642,VALID,227,VALID,0.895148,
2000-08-14, 02:18:00,VALID,918.832,VALID,0,VALID,99.4992,VALID,0.0339617,VALID,18.4415,VALID,221,VALID,1.20165,
2000-08-14, 02:19:00,VALID,918.814,VALID,0,VALID,99.5704,VALID,0,VALID,18.4478,VALID,217,VALID,1.39375,
2000-08-14, 02:20:00,VALID,918.814,VALID,0,VALID,99.62,VALID,0.0169808,VALID,18.4639,VALID,215,VALID,1.26748,
2000-08-14, 02:21:00,VALID,918.828,VALID,0,VALID,99.6188,VALID,0,VALID,18.4872,VALID,207,VALID,1.01845,
2000-08-14, 02:22:00,VALID,918.837,VALID,0,VALID,99.5933,VALID,0,VALID,18.4711,VALID,199,VALID,0.897569,
2000-08-14, 02:23:00,VALID,918.858,VALID,0,VALID,99.6696,VALID,0,VALID,18.4709,VALID,198,VALID,0.984581,
2000-08-14, 02:24:00,VALID,918.865,VALID,0,VALID,99.6938,VALID,0.0169808,VALID,18.5066,VALID,209,VALID,1.07098,
2000-08-14, 02:25:00,VALID,918.868,VALID,0,VALID,99.69,VALID,0,VALID,18.5094,VALID,220,VALID,0.5,
2000-08-14, 02:26:00,VALID,918.861,VALID,0,VALID,99.6874,VALID,0,VALID,18.5195,VALID,211,VALID,0.621194,
2000-08-14, 02:27:00,VALID,918.856,VALID,0,VALID,99.6684,VALID,0,VALID,18.4967,VALID,223,VALID,0.638158,
2000-08-14, 02:28:00,VALID,918.849,VALID,0,VALID,99.6913,VALID,0.0339617,VALID,18.4868,VALID,242,VALID,0.57977,
2000-08-14, 02:29:00,VALID,918.841,VALID,0,VALID,99.6798,VALID,0,VALID,18.4773,VALID,248,VALID,0.672266,
2000-08-14, 02:30:00,VALID,918.853,VALID,0,VALID,99.6836,VALID,0,VALID,18.4642,VALID,292,VALID,0.481086,
2000-08-14, 02:31:00,VALID,918.853,VALID,0,VALID,99.6569,VALID,0,VALID,18.4425,VALID,304,VALID,0.694285,
2000-08-14, 02:32:00,VALID,918.849,VALID,0,VALID,99.6506,VALID,0.0169808,VALID,18.4,VALID,286,VALID,0.608742,
2000-08-14, 02:33:00,VALID,918.845,VALID,0,VALID,99.6773,VALID,0.0169808,VALID,18.3871,VALID,279,VALID,0.539063,
2000-08-14, 02:34:00,VALID,918.84,VALID,0,VALID,99.6925,VALID,0,VALID,18.3903,VALID,268,VALID,0.176563,
2000-08-14, 02:35:00,VALID,918.823,VALID,0,VALID,99.6938,VALID,-0.0169808,VALID,18.3776,VALID,245,VALID,0.0585938,
2000-08-14, 02:36:00,VALID,918.801,VALID,0,VALID,99.704,VALID,0,VALID,18.3613,VALID,240,VALID,0,
2000-08-14, 02:37:00,VALID,918.787,VALID,0,VALID,99.6938,VALID,0,VALID,18.3285,VALID,237,VALID,0.17272,
2000-08-14, 02:38:00,VALID,918.774,VALID,0,VALID,99.7014,VALID,-0.0169808,VALID,18.3126,VALID,223,VALID,0.469984,
2000-08-14, 02:39:00,VALID,918.759,VALID,0,VALID,99.723,VALID,-0.0169808,VALID,18.2997,VALID,222,VALID,0.603849,
2000-08-14, 02:40:00,VALID,918.753,VALID,0,VALID,99.7497,VALID,0,VALID,18.319,VALID,222,VALID,1.00082,
2000-08-14, 02:41:00,VALID,918.736,VALID,0,VALID,99.7408,VALID,0,VALID,18.319,VALID,223,VALID,0.801604,
2000-08-14, 02:42:00,VALID,918.734,VALID,0,VALID,99.7447,VALID,0.0169808,VALID,18.3128,VALID,218,VALID,0.971788,
2000-08-14, 02:43:00,VALID,918.746,VALID,0,VALID,99.7574,VALID,0.0169808,VALID,18.3094,VALID,223,VALID,1.00781,
2000-08-14, 02:44:00,VALID,918.75,VALID,0,VALID,99.7803,VALID,0,VALID,18.3089,VALID,221,VALID,0.882143,
2000-08-14, 02:45:00,VALID,918.75,VALID,0,VALID,99.7777,VALID,0.0169808,VALID,18.3193,VALID,215,VALID,0.903166,
2000-08-14, 02:46:00,VALID,918.753,VALID,0,VALID,99.7892,VALID,0.0169808,VALID,18.3158,VALID,211,VALID,0.968539,
2000-08-14, 02:47:00,VALID,918.754,VALID,0,VALID,99.8108,VALID,0,VALID,18.3257,VALID,203,VALID,0.634663,
2000-08-14, 02:48:00,VALID,918.774,VALID,0,VALID,99.8133,VALID,0,VALID,18.3225,VALID,187,VALID,0.559755,
2000-08-14, 02:49:00,VALID,918.781,VALID,0,VALID,99.8146,VALID,0.0169808,VALID,18.3124,VALID,214,VALID,0.162695,
2000-08-14, 02:50:00,VALID,918.796,VALID,0,VALID,99.8082,VALID,0,VALID,18.313,VALID,219,VALID,0,
2000-08-14, 02:51:00,VALID,918.81,VALID,0,VALID,99.8171,VALID,0.0169808,VALID,18.3064,VALID,218,VALID,0,
2000-08-14, 02:52:00,VALID,918.826,VALID,0,VALID,99.8248,VALID,-0.0339617,VALID,18.3034,VALID,207,VALID,0,
2000-08-14, 02:53:00,VALID,918.861,VALID,0,VALID,99.8235,VALID,0,VALID,18.2932,VALID,154,VALID,0,
2000-08-14, 02:54:00,VALID,918.882,VALID,0,VALID,99.8337,VALID,0,VALID,18.3068,VALID,170,VALID,0,
2000-08-14, 02:55:00,VALID,918.903,VALID,0,VALID,99.8311,VALID,0,VALID,18.2837,VALID,216,VALID,0,
2000-08-14, 02:56:00,VALID,918.926,VALID,0,VALID,99.8299,VALID,-0.0169808,VALID,18.3096,VALID,307,VALID,0,
2000-08-14, 02:57:00,VALID,918.946,VALID,0,VALID,99.8438,VALID,0,VALID,18.3031,VALID,304,VALID,0,
2000-08-14, 02:58:00,VALID,918.977,VALID,0,VALID,99.8553,VALID,0,VALID,18.3064,VALID,317,VALID,0,
2000-08-14, 02:59:00,VALID,918.996,VALID,0,VALID,99.8667,VALID,-0.0169808,VALID,18.3357,VALID,323,VALID,0,
2000-08-14, 03:00:00,VALID,919.013,VALID,0,VALID,99.8782,VALID,0,VALID,18.329,VALID,322,VALID,0,
2000-08-14, 03:01:00,VALID,919.033,VALID,0,VALID,99.8845,VALID,-0.0339617,VALID,18.3458,VALID,322,VALID,0,
2000-08-14, 03:02:00,VALID,919.022,VALID,0,VALID,99.8909,VALID,-0.0169808,VALID,18.3456,VALID,322,VALID,0,
2000-08-14, 03:03:00,VALID,919.03,VALID,0,VALID,99.8909,VALID,0.0169808,VALID,18.3423,VALID,316,VALID,0,
2000-08-14, 03:04:00,VALID,919.019,VALID,0,VALID,99.8947,VALID,-0.0169808,VALID,18.3421,VALID,291,VALID,0,
2000-08-14, 03:05:00,VALID,919.004,VALID,0,VALID,99.9036,VALID,0,VALID,18.3488,VALID,292,VALID,0,
2000-08-14, 03:06:00,VALID,918.997,VALID,0,VALID,99.8985,VALID,-0.0169808,VALID,18.3426,VALID,292,VALID,0,
2000-08-14, 03:07:00,VALID,918.985,VALID,0,VALID,99.9125,VALID,0,VALID,18.3255,VALID,333,VALID,0,
2000-08-14, 03:08:00,VALID,918.973,VALID,0,VALID,99.9023,VALID,0,VALID,18.3262,VALID,331,VALID,0,
2000-08-14, 03:09:00,VALID,918.964,VALID,0,VALID,99.8998,VALID,0,VALID,18.3103,VALID,306,VALID,0,
2000-08-14, 03:10:00,VALID,918.958,VALID,0,VALID,99.9049,VALID,0,VALID,18.2999,VALID,304,VALID,0,
2000-08-14, 03:11:00,VALID,918.939,VALID,0,VALID,99.9049,VALID,0,VALID,18.3004,VALID,302,VALID,0,
2000-08-14, 03:12:00,VALID,918.949,VALID,0,VALID,99.9087,VALID,0,VALID,18.2941,VALID,323,VALID,0,
2000-08-14, 03:13:00,VALID,918.944,VALID,0,VALID,99.9049,VALID,-0.0339617,VALID,18.3006,VALID,342,VALID,0,
2000-08-14, 03:14:00,VALID,918.958,VALID,0,VALID,99.9151,VALID,-0.0339617,VALID,18.2941,VALID,341,VALID,0,
2000-08-14, 03:15:00,VALID,918.96,VALID,0,VALID,99.9125,VALID,-0.0509425,VALID,18.2648,VALID,341,VALID,0,
2000-08-14, 03:16:00,VALID,918.953,VALID,0,VALID,99.9125,VALID,0,VALID,18.2618,VALID,341,VALID,0,
2000-08-14, 03:17:00,VALID,918.963,VALID,0,VALID,99.9087,VALID,-0.0169808,VALID,18.239,VALID,341,VALID,0,
2000-08-14, 03:18:00,VALID,918.963,VALID,0,VALID,99.9074,VALID,0,VALID,18.2224,VALID,339,VALID,0,
2000-08-14, 03:19:00,VALID,918.947,VALID,0,VALID,99.8909,VALID,0,VALID,18.1998,VALID,283,VALID,0,
2000-08-14, 03:20:00,VALID,918.934,VALID,0,VALID,99.8985,VALID,-0.0169808,VALID,18.1737,VALID,236,VALID,0,
2000-08-14, 03:21:00,VALID,918.906,VALID,0,VALID,99.8998,VALID,-0.0339617,VALID,18.1746,VALID,149,VALID,0,
2000-08-14, 03:22:00,VALID,918.888,VALID,0,VALID,99.8693,VALID,-0.0169808,VALID,18.1096,VALID,136,VALID,0,
2000-08-14, 03:23:00,VALID,918.88,VALID,0,VALID,99.8578,VALID,-0.0339617,VALID,18.0484,VALID,128,VALID,0,
2000-08-14, 03:24:00,VALID,918.864,VALID,0,VALID,99.8019,VALID,0,VALID,17.9352,VALID,128,VALID,0,
2000-08-14, 03:25:00,VALID,918.863,VALID,0,VALID,99.7917,VALID,-0.0339617,VALID,17.8611,VALID,128,VALID,0,
2000-08-14, 03:26:00,VALID,918.859,VALID,0,VALID,99.8248,VALID,0,VALID,17.8064,VALID,123,VALID,0.998944,
2000-08-14, 03:27:00,VALID,918.858,VALID,0,VALID,99.8477,VALID,-0.0169808,VALID,17.8032,VALID,128,VALID,1.09807,
2000-08-14, 03:28:00,VALID,918.851,VALID,0,VALID,99.9112,VALID,-0.0339617,VALID,17.8258,VALID,132,VALID,1.2757,
2000-08-14, 03:29:00,VALID,918.838,VALID,0,VALID,99.9265,VALID,-0.0169808,VALID,17.8288,VALID,125,VALID,1.19219,
2000-08-14, 03:30:00,VALID,918.825,VALID,0,VALID,99.9634,VALID,-0.0169808,VALID,17.8581,VALID,126,VALID,1.10526,
2000-08-14, 03:31:00,VALID,918.818,VALID,0,VALID,99.9893,VALID,0,VALID,17.8904,VALID,138,VALID,0.92537,
2000-08-14, 03:32:00,VALID,918.799,VALID,0,VALID,99.9967,VALID,0,VALID,17.9126,VALID,142,VALID,0.782728,
2000-08-14, 03:33:00,VALID,918.78,VALID,0,VALID,99.9964,VALID,0,VALID,17.9386,VALID,152,VALID,0.758681,
2000-08-14, 03:34:00,VALID,918.771,VALID,0,VALID,99.999,VALID,0,VALID,17.9552,VALID,176,VALID,0.60558,
2000-08-14, 03:35:00,VALID,918.764,VALID,0,VALID,99.9771,VALID,0,VALID,17.9225,VALID,197,VALID,0.828869,
2000-08-14, 03:36:00,VALID,918.772,VALID,0,VALID,99.9519,VALID,-0.0169808,VALID,17.8745,VALID,196,VALID,0.960093,
2000-08-14, 03:37:00,VALID,918.779,VALID,0,VALID,99.9735,VALID,-0.0339617,VALID,17.8519,VALID,188,VALID,1.09502,
2000-08-14, 03:38:00,VALID,918.78,VALID,0,VALID,99.9929,VALID,-0.0169808,VALID,17.8355,VALID,186,VALID,1.07956,
2000-08-14, 03:39:00,VALID,918.791,VALID,0,VALID,100,VALID,-0.0169808,VALID,17.8648,VALID,181,VALID,0.828316,
2000-08-14, 03:40:00,VALID,918.786,VALID,0,VALID,100,VALID,-0.0169808,VALID,17.8708,VALID,176,VALID,0.72903,
2000-08-14, 03:41:00,VALID,918.78,VALID,0,VALID,99.9908,VALID,0,VALID,17.8486,VALID,161,VALID,0.754112,